Woodruff, WI

10:04 AM CDT on September 27, 2016 (GMT -0500)
Lakeland-Lee Memorial

Weather History for KARV - December, 2012

Change the Weather History Date:

Saturday, December 8, 2012

  Actual Average Record
Temperature  
Mean Temperature 24 °F -  
Max Temperature 32 °F 25 °F 45 °F (1930)
Min Temperature 17 °F 8 °F -22 °F (1917)
Degree Days  
Heating Degree Days 40    
Moisture  
Dew Point 20 °F    
Average Humidity 82    
Maximum Humidity 93    
Minimum Humidity 60    
Precipitation  
Precipitation 0.00 in - - ()
Sea Level Pressure  
Sea Level Pressure 30.02 in    
Wind  
Wind Speed 1 mph (ESE)    
Max Wind Speed 6 mph    
Max Gust Speed -    
Visibility 9 miles    
Events Snow    
Averages and records for this station are not official NWS values.
T = Trace of Precipitation, MM = Missing Value Source: NWS Daily Summary

Daily Weather History Graph

Daily Weather History Graph

Search for Another Location

Airport or City:

Trip Planner

Search our weather history database for the weather conditions in past years. The results will help you decide how hot, cold, wet, or windy it might be!

Date:

Astronomy

Dec. 08, 2012 Rise Set
Actual Time 7:28 AM CST 4:13 PM CST
Civil Twilight 6:53 AM CST 4:48 PM CST
Nautical Twilight 6:16 AM CST 5:25 PM CST
Astronomical Twilight 5:39 AM CST 6:02 PM CST
Moon 1:38 AM CST (12/8) 12:56 PM CST (12/8)
Length of Visible Light 9h 54m
Length of Day
8h 45m
Waning Crescent, 28% of the Moon is Illuminated
Dec 8
Waning Crescent
Dec 13
New
Dec 19
First Quarter
Dec 28
Full
Jan 4
Last Quarter

Hourly Weather History & Observations

Time (CST) Temp. Windchill Dew Point Humidity Pressure Visibility Wind Dir Wind Speed Gust Speed Precip Events Conditions
12:15 AM 24.8 °F - 21.2 °F 86% 29.98 in 5.0 mi Calm Calm - N/A Snow Light Snow
12:35 AM 23.0 °F - 21.2 °F 93% 29.97 in 7.0 mi Calm Calm - N/A   Clear
12:55 AM 23.0 °F - 21.2 °F 93% 29.96 in 5.0 mi Calm Calm - N/A Snow Light Snow
1:15 AM 23.0 °F - 21.2 °F 93% 29.97 in 5.0 mi Calm Calm - N/A Snow Light Snow
1:35 AM 23.0 °F - 21.2 °F 93% 29.97 in 7.0 mi Calm Calm - N/A   Clear
1:55 AM 23.0 °F - 21.2 °F 93% 29.98 in 7.0 mi Calm Calm - N/A   Clear
2:15 AM 23.0 °F - 21.2 °F 93% 29.98 in 7.0 mi Calm Calm - N/A   Scattered Clouds
2:55 AM 23.0 °F - 19.4 °F 86% 29.98 in 10.0 mi Calm Calm - N/A   Overcast
3:15 AM 23.0 °F - 21.2 °F 93% 29.97 in 5.0 mi Calm Calm - N/A Snow Light Snow
3:35 AM 23.0 °F - 21.2 °F 93% 29.96 in 5.0 mi Calm Calm - N/A Snow Light Snow
3:55 AM 23.0 °F - 21.2 °F 93% 29.97 in 7.0 mi Calm Calm - N/A Snow Light Snow
4:15 AM 23.0 °F - 21.2 °F 93% 29.97 in 10.0 mi Calm Calm - N/A   Overcast
4:35 AM 23.0 °F - 21.2 °F 93% 29.98 in 10.0 mi Calm Calm - N/A   Overcast
4:55 AM 23.0 °F - 21.2 °F 93% 29.98 in 10.0 mi Calm Calm - N/A   Overcast
5:15 AM 23.0 °F - 21.2 °F 93% 29.98 in 10.0 mi Calm Calm - N/A   Overcast
5:35 AM 23.0 °F - 21.2 °F 93% 29.98 in 10.0 mi Calm Calm - N/A   Scattered Clouds
5:55 AM 21.2 °F - 19.4 °F 93% 29.98 in 10.0 mi Calm Calm - N/A   Scattered Clouds
6:15 AM 19.4 °F - 17.6 °F 93% 29.98 in 10.0 mi Calm Calm - N/A   Mostly Cloudy
6:35 AM 19.4 °F - 17.6 °F 93% 29.98 in 10.0 mi Calm Calm - N/A   Scattered Clouds
6:55 AM 17.6 °F - 14.0 °F 86% 29.99 in 10.0 mi Calm Calm - N/A   Clear
7:15 AM 17.6 °F - 14.0 °F 86% 29.99 in 10.0 mi Calm Calm - N/A   Clear
7:35 AM 17.6 °F - 14.0 °F 86% 30.00 in 10.0 mi Calm Calm - N/A   Clear
7:55 AM 17.6 °F - 14.0 °F 86% 30.00 in 10.0 mi Calm Calm - N/A   Clear
8:15 AM 17.6 °F - 14.0 °F 86% 30.00 in 10.0 mi Calm Calm - N/A   Clear
8:35 AM 19.4 °F - 17.6 °F 93% 30.00 in 10.0 mi Calm Calm - N/A   Clear
8:55 AM 19.4 °F - 17.6 °F 93% 30.00 in 10.0 mi Calm Calm - N/A   Scattered Clouds
9:15 AM 23.0 °F - 19.4 °F 86% 30.01 in 10.0 mi Calm Calm - N/A   Clear
9:35 AM 24.8 °F - 23.0 °F 93% 30.01 in 10.0 mi Calm Calm - N/A   Clear
9:55 AM 26.6 °F 22.6 °F 23.0 °F 86% 30.01 in 10.0 mi North 3.5 mph - N/A   Clear
10:15 AM 28.4 °F - 21.2 °F 74% 30.02 in 10.0 mi Calm Calm - N/A   Clear
10:35 AM 28.4 °F 24.6 °F 21.2 °F 74% 30.02 in 10.0 mi NW 3.5 mph - N/A   Scattered Clouds
10:55 AM 28.4 °F - 21.2 °F 74% 30.02 in 10.0 mi Calm Calm - N/A   Scattered Clouds
11:15 AM 28.4 °F - 21.2 °F 74% 30.01 in 10.0 mi Calm Calm - N/A   Scattered Clouds
11:35 AM 30.2 °F 26.7 °F 21.2 °F 69% 30.01 in 10.0 mi SE 3.5 mph - N/A   Mostly Cloudy
11:55 AM 30.2 °F 25.4 °F 21.2 °F 69% 30.01 in 10.0 mi North 4.6 mph - N/A   Mostly Cloudy
12:15 PM 30.2 °F - 21.2 °F 69% 30.01 in 10.0 mi Calm Calm - N/A   Mostly Cloudy
12:35 PM 30.2 °F - 21.2 °F 69% 30.01 in 10.0 mi Calm Calm - N/A   Clear
12:55 PM 32.0 °F - 21.2 °F 64% 30.02 in 10.0 mi Calm Calm - N/A   Clear
1:15 PM 32.0 °F 27.5 °F 21.2 °F 64% 30.02 in 10.0 mi West 4.6 mph - N/A   Clear
1:35 PM 32.0 °F - 19.4 °F 60% 30.01 in 10.0 mi Calm Calm - N/A   Clear
1:55 PM 32.0 °F - 21.2 °F 64% 30.00 in 10.0 mi Calm Calm - N/A   Clear
2:15 PM 32.0 °F - 19.4 °F 60% 30.00 in 10.0 mi Calm Calm - N/A   Clear
2:35 PM 32.0 °F - 19.4 °F 60% 30.00 in 10.0 mi Calm Calm - N/A   Clear
2:55 PM 32.0 °F 28.7 °F 19.4 °F 60% 30.00 in 10.0 mi North 3.5 mph - N/A   Clear
3:15 PM 32.0 °F - 19.4 °F 60% 30.01 in 10.0 mi Calm Calm - N/A   Clear
3:35 PM 32.0 °F 28.7 °F 21.2 °F 64% 30.02 in 10.0 mi SSE 3.5 mph - N/A   Clear
3:55 PM 32.0 °F - 21.2 °F 64% 30.03 in 10.0 mi Calm Calm - N/A   Clear
4:15 PM 28.4 °F - 19.4 °F 69% 30.05 in 10.0 mi Calm Calm - N/A   Clear
4:35 PM 28.4 °F - 19.4 °F 69% 30.05 in 10.0 mi Calm Calm - N/A   Clear
4:55 PM 26.6 °F - 19.4 °F 74% 30.05 in 10.0 mi Calm Calm - N/A   Clear
5:15 PM 26.6 °F - 19.4 °F 74% 30.05 in 10.0 mi Calm Calm - N/A   Clear
5:35 PM 24.8 °F - 19.4 °F 80% 30.05 in 10.0 mi Calm Calm - N/A   Clear
5:55 PM 24.8 °F - 19.4 °F 80% 30.05 in 10.0 mi Calm Calm - N/A   Clear
6:15 PM 23.0 °F - 19.4 °F 86% 30.06 in 10.0 mi Calm Calm - N/A   Clear
6:35 PM 24.8 °F 20.5 °F 19.4 °F 80% 30.06 in 10.0 mi ESE 3.5 mph - N/A   Clear
7:15 PM 19.4 °F - 17.6 °F 93% 30.07 in 10.0 mi Calm Calm - N/A   Clear
7:35 PM 23.0 °F 18.4 °F 19.4 °F 86% 30.07 in 10.0 mi ESE 3.5 mph - N/A   Clear
7:55 PM 21.2 °F 16.4 °F 17.6 °F 86% 30.07 in 10.0 mi ESE 3.5 mph - N/A   Clear
8:15 PM 23.0 °F 17.0 °F 19.4 °F 86% 30.06 in 10.0 mi ESE 4.6 mph - N/A   Clear
9:15 PM 23.0 °F 18.4 °F 19.4 °F 86% 30.06 in 10.0 mi ESE 3.5 mph - N/A   Clear
9:35 PM 23.0 °F 18.4 °F 17.6 °F 80% 30.07 in 10.0 mi ESE 3.5 mph - N/A   Clear
9:55 PM 23.0 °F 18.4 °F 17.6 °F 80% 30.07 in 10.0 mi ESE 3.5 mph - N/A   Clear
10:15 PM 23.0 °F 15.8 °F 19.4 °F 86% 30.07 in 10.0 mi ESE 5.8 mph - N/A   Clear
10:35 PM 23.0 °F 18.4 °F 19.4 °F 86% 30.08 in 10.0 mi SE 3.5 mph - N/A   Clear
10:55 PM 23.0 °F 18.4 °F 17.6 °F 80% 30.09 in 10.0 mi SE 3.5 mph - N/A   Clear
11:15 PM 23.0 °F 15.8 °F 19.4 °F 86% 30.10 in 10.0 mi ESE 5.8 mph - N/A   Clear
11:35 PM 23.0 °F 15.8 °F 19.4 °F 86% 30.09 in 10.0 mi ESE 5.8 mph - N/A   Clear
11:55 PM 23.0 °F 15.8 °F 19.4 °F 86% 30.08 in 10.0 mi ESE 5.8 mph - N/A   Clear